Sioux Falls, SD

11:34 PM CDT on April 27, 2017 (GMT -0500)
Foss

Weather History for KFSD - August, 2013

Change the Weather History Date:

Sunday, August 4, 2013

  Actual Average Record
Temperature  
Mean Temperature 65 °F 72 °F  
Max Temperature 76 °F 83 °F 107 °F (1934)
Min Temperature 53 °F 62 °F 42 °F (1894)
Degree Days  
Heating Degree Days 0 0  
Month to date heating degree days 3 0  
Since 1 June heating degree days 91 59  
Since 1 July heating degree days 22 8  
Cooling Degree Days 0 8  
Month to date cooling degree days 5 32  
Year to date cooling degree days 432 459  
Since 1 June cooling degree days 390 423  
Growing Degree Days 14 (Base 50)    
Moisture  
Dew Point 56 °F    
Average Humidity 73    
Maximum Humidity 93    
Minimum Humidity 53    
Precipitation  
Precipitation T in 0.10 in 2.48 in (2007)
Month to date precipitation 0.21 0.42  
Year to date precipitation 17.40 16.76  
Snow  
Snow 0.00 in 0.00 in 0.00 in ()
Month to date snowfall 0.0 0.0  
Since 1 June snowfall 0.0 0.0  
Since 1 July snowfall 0.0 0.0  
Snow Depth 0.00 in    
Sea Level Pressure  
Sea Level Pressure 30.12 in    
Wind  
Wind Speed 9 mph (SE)    
Max Wind Speed 24 mph    
Max Gust Speed 29 mph    
Visibility 10 miles    
Events Rain    
T = Trace of Precipitation, MM = Missing Value Source: NWS Daily Summary

Daily Weather History Graph

Daily Weather History Graph

Search for Another Location

Airport or City:

Trip Planner

Search our weather history database for the weather conditions in past years. The results will help you decide how hot, cold, wet, or windy it might be!

Date:

Astronomy

Aug. 04, 2013 Rise Set
Actual Time 6:19 AM CDT 8:45 PM CDT
Civil Twilight 5:47 AM CDT 9:17 PM CDT
Nautical Twilight 5:07 AM CDT 9:57 PM CDT
Astronomical Twilight 4:22 AM CDT 10:42 PM CDT
Moon 4:21 AM CDT (8/4) 7:09 PM CDT (8/4)
Length of Visible Light 15h 30m
Length of Day
14h 25m
Waning Crescent, 4% of the Moon is Illuminated
Aug 4
Waning Crescent
Aug 6
New
Aug 14
First Quarter
Aug 20
Full
Aug 28
Last Quarter

Hourly Weather History & Observations

Time (CDT) Temp. Dew Point Humidity Pressure Visibility Wind Dir Wind Speed Gust Speed Precip Events Conditions
12:56 AM 57.0 °F 54.0 °F 89% 30.23 in 10.0 mi Calm Calm - N/A   Clear
1:56 AM 55.9 °F 54.0 °F 93% 30.23 in 10.0 mi NNE 4.6 mph - N/A   Clear
2:56 AM 55.0 °F 53.1 °F 93% 30.19 in 10.0 mi NNE 4.6 mph - N/A   Clear
3:56 AM 55.0 °F 53.1 °F 93% 30.17 in 10.0 mi Calm Calm - N/A   Clear
4:56 AM 53.1 °F 50.0 °F 89% 30.19 in 10.0 mi ENE 3.5 mph - N/A   Partly Cloudy
5:56 AM 55.9 °F 51.1 °F 84% 30.18 in 10.0 mi ESE 6.9 mph - N/A   Mostly Cloudy
6:56 AM 55.9 °F 52.0 °F 87% 30.23 in 10.0 mi North 3.5 mph - N/A   Mostly Cloudy
7:56 AM 57.0 °F 53.1 °F 87% 30.25 in 10.0 mi Calm Calm - N/A   Overcast
8:56 AM 59.0 °F 51.1 °F 75% 30.16 in 10.0 mi ESE 10.4 mph - 0.00 in Rain Light Rain
9:56 AM 64.9 °F 54.0 °F 68% 30.17 in 10.0 mi SSE 8.1 mph - 0.00 in   Mostly Cloudy
10:56 AM 69.1 °F 57.0 °F 65% 30.15 in 10.0 mi South 12.7 mph - N/A   Mostly Cloudy
11:56 AM 69.1 °F 55.0 °F 61% 30.12 in 10.0 mi South 17.3 mph 26.5 mph N/A   Mostly Cloudy
12:56 PM 72.0 °F 55.9 °F 57% 30.14 in 10.0 mi South 12.7 mph - 0.00 in   Scattered Clouds
1:56 PM 73.0 °F 55.9 °F 55% 30.12 in 10.0 mi SSE 10.4 mph - N/A   Scattered Clouds
2:56 PM 73.0 °F 57.0 °F 57% 30.11 in 10.0 mi South 11.5 mph - N/A   Scattered Clouds
3:56 PM 75.0 °F 57.0 °F 53% 30.09 in 10.0 mi SSE 9.2 mph - N/A   Mostly Cloudy
4:56 PM 73.9 °F 57.9 °F 57% 30.07 in 10.0 mi ESE 10.4 mph 17.3 mph N/A   Mostly Cloudy
5:56 PM 75.0 °F 59.0 °F 57% 30.04 in 10.0 mi SSE 12.7 mph 18.4 mph N/A   Mostly Cloudy
6:56 PM 73.9 °F 59.0 °F 59% 30.03 in 10.0 mi SSE 10.4 mph 18.4 mph N/A   Overcast
7:56 PM 73.0 °F 61.0 °F 66% 30.01 in 10.0 mi SSE 12.7 mph - N/A   Overcast
8:56 PM 73.0 °F 61.0 °F 66% 30.00 in 10.0 mi SSE 11.5 mph 18.4 mph N/A   Overcast
9:56 PM 72.0 °F 61.0 °F 68% 30.00 in 10.0 mi SSE 12.7 mph - N/A   Overcast
10:56 PM 72.0 °F 62.1 °F 71% 29.99 in 10.0 mi South 10.4 mph - N/A   Overcast
11:56 PM 71.6 °F 60.8 °F 69% 29.96 in 10.0 mi South 13.8 mph - N/A   Mostly Cloudy